Weather in Iskra

Russia / Kurgan Oblast     54°24′26″N   64°33′21″E
temp.,
°C
wind,
m/s
gust,
m/s
humid.,
%
clouds,
%
prec.,
mm/h
press.,
hPa
HPBL,
m
25 february, thu
thu2523:00−20n91591100 0.3 1012745
02:00−21n81491100 0.1 1015704
05:00−23nnw81391100 0.1 1018561
08:00−24nnw61192100 0.1 1020485
11:00−25nnw61090100 0.1 1024453
14:00−22nw589093 0.0 1026421
17:00−23wnw369274 0.0 1028160
20:00−27w33950 0.0 102920
26 february, fri
fri2623:00−27w339514 0.0 103126
02:00−27wsw339872 0.0 103125
05:00−27wsw339774 0.0 103125
08:00−28ssw339322 0.0 103124
11:00−24ssw359011 0.0 1031230
14:00−22s45900 0.0 1031304
17:00−23sse46953 0.0 1031152
20:00−28s47975 0.0 103097
27 february, sat
sat2723:00−29s46983 0.0 103089
02:00−31s44980 0.0 102969
05:00−31sse45970 0.0 102880
08:00−30sse489821 0.0 1026140
11:00−23sse599657 0.0 1024278
14:00−17se61094100 0.1 1021453
17:00−13se61292100 0.3 1018647
20:00−9sse71394100 0.9 1015790
28 february, sun
sun2823:00−9sse71394100 1.8 1012694
02:00−8sse61394100 0.6 1010565
05:00−8sse51194100 0.8 1008436
08:00−7se4995100 0.3 1006356
11:00−5se4696100 1.0 1005385
14:00−3se2496100 1.0 1005300
17:00−2sw0196100 1.5 100524
20:00−4wsw2296100 0.1 100660
1 march, mon
mon123:00−6w239597 0.1 100843
02:00−8wnw129687 0.1 100922
05:00−9nne349693 0.2 1010113
08:00−10nne4695100 0.2 1011204
11:00−10nne459497 0.5 1012241
14:00−9nne349392 0.0 1013301
17:00−11nne229595 0.1 101425
20:00−14nne129795 0.0 101421